Greenville, MS

4:22 AM CST on December 13, 2017 (GMT -0600)
Mid Delta Regional

Weather History for KGLH - January, 2012

Change the Weather History Date:

Friday, January 6, 2012

  Actual Average Record
Temperature  
Mean Temperature 50 °F 42 °F  
Max Temperature 64 °F 51 °F 76 °F (1946)
Min Temperature 35 °F 33 °F 9 °F (1924)
Degree Days  
Heating Degree Days 15 23  
Month to date heating degree days 122 135  
Since 1 July heating degree days 1150 1219  
Cooling Degree Days 0 0  
Month to date cooling degree days 0 0  
Year to date cooling degree days 0 0  
Moisture  
Dew Point 49 °F    
Average Humidity 85    
Maximum Humidity 93    
Minimum Humidity 76    
Precipitation  
Precipitation 0.00 in 0.14 in 2.57 in (1968)
Month to date precipitation 0.00 0.86  
Year to date precipitation 0.00 0.86  
Sea Level Pressure  
Sea Level Pressure 30.05 in    
Wind  
Wind Speed 9 mph (SSW)    
Max Wind Speed 24 mph    
Max Gust Speed 29 mph    
Visibility 10 miles    
Events      
T = Trace of Precipitation, MM = Missing Value Source: NWS Daily Summary

Daily Weather History Graph

Daily Weather History Graph

Search for Another Location

Airport or City:

Trip Planner

Search our weather history database for the weather conditions in past years. The results will help you decide how hot, cold, wet, or windy it might be!

Date:

Astronomy

Jan. 06, 2012 Rise Set
Actual Time 7:08 AM CST 5:10 PM CST
Civil Twilight 6:41 AM CST 5:38 PM CST
Nautical Twilight 6:10 AM CST 6:08 PM CST
Astronomical Twilight 5:40 AM CST 6:39 PM CST
Moon 3:02 PM CST (1/6) 4:47 AM CST (1/6)
Length of Visible Light 10h 56m
Length of Day
10h 01m
Waxing Gibbous, 93% of the Moon is Illuminated
Jan 6
Waxing Gibbous
Jan 9
Full
Jan 16
Last Quarter
Jan 23
New
Jan 30
First Quarter

Hourly Weather History & Observations

Time (CST) Temp. Windchill Dew Point Humidity Pressure Visibility Wind Dir Wind Speed Gust Speed Precip Events Conditions
12:53 AM 41.0 °F 37.1 °F 35.1 °F 79% 30.11 in 10.0 mi South 5.8 mph - N/A   Clear
1:53 AM 39.2 °F 35.0 °F 35.6 °F 87% 30.07 in 10.0 mi South 5.8 mph - N/A   Clear
2:53 AM 37.0 °F 31.6 °F 34.0 °F 89% 30.08 in 10.0 mi South 6.9 mph - N/A   Clear
3:53 AM 37.9 °F - 34.0 °F 86% 30.07 in 10.0 mi North - - N/A   Clear
4:53 AM 39.0 °F 34.0 °F 35.1 °F 86% 30.08 in 10.0 mi South 6.9 mph - N/A   Clear
5:53 AM 39.0 °F 35.7 °F 35.1 °F 86% 30.10 in 10.0 mi South 4.6 mph - N/A   Clear
6:53 AM 39.9 °F 37.8 °F 36.0 °F 86% 30.11 in 10.0 mi SSE 3.5 mph - N/A   Clear
7:53 AM 41.0 °F 39.0 °F 37.9 °F 89% 30.12 in 10.0 mi SE 3.5 mph - N/A   Clear
8:53 AM 50.0 °F - 45.0 °F 83% 30.13 in 10.0 mi South 5.8 mph - N/A   Clear
9:53 AM 54.0 °F - 48.9 °F 83% 30.14 in 10.0 mi South 4.6 mph - N/A   Mostly Cloudy
10:53 AM 63.0 °F - 55.9 °F 78% 30.12 in 10.0 mi SW 15.0 mph - N/A   Partly Cloudy
11:53 AM 61.0 °F - 55.0 °F 81% 30.09 in 10.0 mi SW 13.8 mph - N/A   Overcast
12:42 PM 62.6 °F - 55.4 °F 77% 30.02 in 10.0 mi SW 24.2 mph - N/A   Mostly Cloudy
12:53 PM 63.0 °F - 55.9 °F 78% 30.04 in 10.0 mi SW 17.3 mph 27.6 mph N/A   Mostly Cloudy
1:53 PM 63.0 °F - 55.9 °F 78% 30.02 in 10.0 mi SW 16.1 mph - N/A   Scattered Clouds
2:48 PM 62.6 °F - 55.4 °F 77% 30.00 in 10.0 mi SW 15.0 mph - N/A   Mostly Cloudy
2:53 PM 62.1 °F - 55.9 °F 80% 30.03 in 10.0 mi WSW 16.1 mph - N/A   Overcast
3:43 PM 60.8 °F - 55.4 °F 82% 29.99 in 10.0 mi South 11.5 mph - N/A   Scattered Clouds
3:53 PM 61.0 °F - 57.0 °F 87% 30.01 in 10.0 mi South 10.4 mph - N/A   Clear
4:53 PM 61.0 °F - 57.0 °F 87% 30.00 in 10.0 mi South 11.5 mph - N/A   Clear
5:53 PM 57.0 °F - 55.0 °F 93% 30.01 in 10.0 mi South 9.2 mph - N/A   Clear
6:53 PM 57.9 °F - 55.9 °F 93% 30.00 in 10.0 mi South 9.2 mph - N/A   Clear
7:53 PM 55.0 °F - 54.0 °F 96% 30.00 in 10.0 mi South 6.9 mph - N/A   Clear
8:53 PM 55.0 °F - 54.0 °F 96% 30.00 in 10.0 mi South 9.2 mph - N/A   Clear
9:53 PM 55.9 °F - 54.0 °F 93% 29.99 in 10.0 mi South 10.4 mph - N/A   Clear
10:53 PM 55.9 °F - 54.0 °F 93% 30.00 in 10.0 mi SSW 9.2 mph - N/A   Clear
11:53 PM 60.1 °F - 55.9 °F 86% 30.01 in 10.0 mi SSW 13.8 mph - N/A   Clear